Wetterdaten: Freitag, 28.06.2013
Datum Zeit Temperatur Luftfeuchte Luftdruck Regen Wind Richtung Richtung Taupunkt Windchill Windben
28.06.2013 00:00 8,0 C 90 % 1023,8 hPa 0,0 l/m 0,0 km/h (0 Bft) O-SO 112 6,5 C 7,8 C 0,0 km/h (0 Bft)
28.06.2013 00:05 8,0 C 90 % 1023,6 hPa 0,0 l/m 0,0 km/h (0 Bft) S 180 6,5 C 7,8 C 0,0 km/h (0 Bft)
28.06.2013 00:10 8,0 C 90 % 1023,6 hPa 0,0 l/m 0,0 km/h (0 Bft) O-SO 112 6,5 C 7,8 C 0,0 km/h (0 Bft)
28.06.2013 00:15 7,9 C 90 % 1023,6 hPa 0,0 l/m 0,0 km/h (0 Bft) S-SW 202 6,4 C 7,8 C 0,0 km/h (0 Bft)
28.06.2013 00:20 8,0 C 90 % 1023,6 hPa 0,0 l/m 0,5 km/h (0 Bft) S 180 6,5 C 7,8 C 2,7 km/h (1 Bft)
28.06.2013 00:25 8,0 C 90 % 1023,8 hPa 0,0 l/m 1,1 km/h (1 Bft) S 180 6,5 C 7,8 C 1,9 km/h (1 Bft)
28.06.2013 00:30 8,0 C 90 % 1023,8 hPa 0,0 l/m 1,3 km/h (1 Bft) SO 135 6,5 C 7,8 C 2,9 km/h (1 Bft)
28.06.2013 00:35 8,0 C 90 % 1023,8 hPa 0,0 l/m 0,8 km/h (0 Bft) O-SO 112 6,5 C 7,8 C 1,8 km/h (1 Bft)
28.06.2013 00:40 8,0 C 90 % 1023,8 hPa 0,0 l/m 1,6 km/h (1 Bft) NO 45 6,5 C 7,8 C 4,5 km/h (1 Bft)
28.06.2013 00:45 8,0 C 90 % 1023,6 hPa 0,0 l/m 1,8 km/h (1 Bft) NO 45 6,5 C 7,8 C 0,0 km/h (0 Bft)
28.06.2013 00:50 7,9 C 90 % 1023,6 hPa 0,0 l/m 0,8 km/h (0 Bft) O-NO 67 6,4 C 7,8 C 0,0 km/h (0 Bft)
28.06.2013 00:55 7,9 C 90 % 1023,6 hPa 0,0 l/m 0,2 km/h (0 Bft) S-SW 202 6,4 C 7,7 C 0,0 km/h (0 Bft)
28.06.2013 01:00 7,9 C 90 % 1023,6 hPa 0,0 l/m 0,0 km/h (0 Bft) O 90 6,4 C 7,7 C 0,0 km/h (0 Bft)
28.06.2013 01:05 7,9 C 90 % 1023,5 hPa 0,0 l/m 0,3 km/h (0 Bft) O 90 6,4 C 7,7 C 2,1 km/h (1 Bft)
28.06.2013 01:10 7,9 C 90 % 1023,5 hPa 0,0 l/m 1,0 km/h (0 Bft) NO 45 6,4 C 7,7 C 0,0 km/h (0 Bft)
28.06.2013 01:15 7,8 C 90 % 1023,5 hPa 0,0 l/m 0,8 km/h (0 Bft) N 360 6,3 C 7,6 C 0,0 km/h (0 Bft)
28.06.2013 01:20 7,7 C 90 % 1023,5 hPa 0,0 l/m 0,2 km/h (0 Bft) O 90 6,2 C 7,5 C 2,1 km/h (1 Bft)
28.06.2013 01:25 7,7 C 90 % 1023,4 hPa 0,0 l/m 0,2 km/h (0 Bft) O-SO 112 6,2 C 7,5 C 0,0 km/h (0 Bft)
28.06.2013 01:30 7,6 C 90 % 1023,4 hPa 0,0 l/m 0,2 km/h (0 Bft) S-SO 157 6,1 C 7,4 C 0,0 km/h (0 Bft)
28.06.2013 01:35 7,6 C 90 % 1023,4 hPa 0,0 l/m 0,2 km/h (0 Bft) S-SO 157 6,1 C 7,3 C 0,0 km/h (0 Bft)
28.06.2013 01:40 7,4 C 90 % 1023,4 hPa 0,0 l/m 1,0 km/h (0 Bft) S 180 5,9 C 7,2 C 2,4 km/h (1 Bft)
28.06.2013 01:45 7,3 C 90 % 1023,2 hPa 0,0 l/m 0,8 km/h (0 Bft) O-SO 112 5,8 C 7,2 C 0,0 km/h (0 Bft)
28.06.2013 01:50 7,2 C 90 % 1023,2 hPa 0,0 l/m 0,5 km/h (0 Bft) O-SO 112 5,7 C 6,9 C 1,9 km/h (1 Bft)
28.06.2013 01:55 7,1 C 90 % 1023,2 hPa 0,0 l/m 0,3 km/h (0 Bft) S 180 5,6 C 6,8 C 0,0 km/h (0 Bft)
28.06.2013 02:00 7,1 C 90 % 1023,2 hPa 0,0 l/m 0,5 km/h (0 Bft) O-NO 67 5,6 C 6,8 C 1,6 km/h (1 Bft)
28.06.2013 02:05 7,0 C 90 % 1023,2 hPa 0,0 l/m 0,3 km/h (0 Bft) O 90 5,5 C 6,7 C 0,0 km/h (0 Bft)
28.06.2013 02:10 7,0 C 90 % 1023,2 hPa 0,0 l/m 0,0 km/h (0 Bft) O-NO 67 5,5 C 6,6 C 0,0 km/h (0 Bft)
28.06.2013 02:15 7,0 C 90 % 1023,2 hPa 0,0 l/m 0,0 km/h (0 Bft) NO 45 5,5 C 6,6 C 0,0 km/h (0 Bft)
28.06.2013 02:20 6,9 C 91 % 1023,2 hPa 0,0 l/m 0,0 km/h (0 Bft) O-SO 112 5,5 C 6,6 C 0,0 km/h (0 Bft)
28.06.2013 02:25 6,8 C 90 % 1023,0 hPa 0,0 l/m 0,0 km/h (0 Bft) SO 135 5,3 C 6,6 C 0,0 km/h (0 Bft)
28.06.2013 02:30 6,7 C 90 % 1023,0 hPa 0,0 l/m 0,0 km/h (0 Bft) O 90 5,2 C 6,5 C 0,0 km/h (0 Bft)
28.06.2013 02:35 6,7 C 91 % 1023,0 hPa 0,0 l/m 0,2 km/h (0 Bft) NO 45 5,3 C 6,5 C 0,0 km/h (0 Bft)
28.06.2013 02:40 6,8 C 91 % 1023,0 hPa 0,0 l/m 0,2 km/h (0 Bft) NO 45 5,4 C 6,4 C 0,0 km/h (0 Bft)
28.06.2013 02:45 6,8 C 91 % 1022,8 hPa 0,0 l/m 0,2 km/h (0 Bft) NO 45 5,4 C 6,4 C 0,0 km/h (0 Bft)
28.06.2013 02:50 6,8 C 91 % 1022,8 hPa 0,0 l/m 0,0 km/h (0 Bft) SO 135 5,4 C 6,5 C 0,0 km/h (0 Bft)
28.06.2013 02:55 6,8 C 91 % 1022,8 hPa 0,0 l/m 0,0 km/h (0 Bft) O-SO 112 5,4 C 6,5 C 0,0 km/h (0 Bft)
28.06.2013 03:00 6,8 C 91 % 1022,8 hPa 0,0 l/m 0,0 km/h (0 Bft) O-NO 67 5,4 C 6,5 C 0,0 km/h (0 Bft)
28.06.2013 03:05 6,9 C 91 % 1022,8 hPa 0,0 l/m 0,3 km/h (0 Bft) O 90 5,5 C 6,5 C 0,0 km/h (0 Bft)
28.06.2013 03:10 6,9 C 91 % 1022,8 hPa 0,0 l/m 0,3 km/h (0 Bft) O-NO 67 5,5 C 6,5 C 0,0 km/h (0 Bft)
28.06.2013 03:15 6,9 C 91 % 1022,8 hPa 0,0 l/m 0,0 km/h (0 Bft) N-NO 22 5,5 C 6,5 C 0,0 km/h (0 Bft)
28.06.2013 03:20 6,8 C 91 % 1022,8 hPa 0,0 l/m 0,0 km/h (0 Bft) NO 45 5,4 C 6,5 C 0,0 km/h (0 Bft)
28.06.2013 03:25 6,8 C 91 % 1022,7 hPa 0,0 l/m 0,3 km/h (0 Bft) NO 45 5,4 C 6,5 C 0,0 km/h (0 Bft)
28.06.2013 03:30 7,0 C 91 % 1022,7 hPa 0,0 l/m 1,0 km/h (0 Bft) O 90 5,6 C 6,5 C 2,3 km/h (1 Bft)
28.06.2013 03:35 7,0 C 91 % 1022,7 hPa 0,0 l/m 1,3 km/h (1 Bft) O-SO 112 5,6 C 6,5 C 0,0 km/h (0 Bft)
28.06.2013 03:40 6,9 C 91 % 1022,7 hPa 0,0 l/m 1,1 km/h (1 Bft) SO 135 5,5 C 6,5 C 2,7 km/h (1 Bft)
28.06.2013 03:45 6,9 C 91 % 1022,6 hPa 0,0 l/m 1,0 km/h (0 Bft) NO 45 5,5 C 6,5 C 1,9 km/h (1 Bft)
28.06.2013 03:50 6,8 C 91 % 1022,6 hPa 0,0 l/m 1,0 km/h (0 Bft) NO 45 5,4 C 6,4 C 0,0 km/h (0 Bft)
28.06.2013 03:55 6,8 C 91 % 1022,6 hPa 0,0 l/m 0,6 km/h (0 Bft) O 90 5,4 C 6,4 C 0,0 km/h (0 Bft)
28.06.2013 04:00 6,7 C 91 % 1022,6 hPa 0,0 l/m 0,3 km/h (0 Bft) SO 135 5,3 C 6,3 C 0,0 km/h (0 Bft)
28.06.2013 04:05 6,6 C 91 % 1022,5 hPa 0,0 l/m 0,2 km/h (0 Bft) S 180 5,2 C 6,3 C 0,0 km/h (0 Bft)
28.06.2013 04:10 6,7 C 91 % 1022,5 hPa 0,0 l/m 0,8 km/h (0 Bft) O-NO 67 5,3 C 6,3 C 5,5 km/h (1 Bft)
28.06.2013 04:15 6,7 C 91 % 1022,5 hPa 0,0 l/m 1,0 km/h (0 Bft) SO 135 5,3 C 6,3 C 0,0 km/h (0 Bft)
28.06.2013 04:20 6,7 C 91 % 1022,5 hPa 0,0 l/m 1,0 km/h (0 Bft) S-SO 157 5,3 C 6,4 C 1,9 km/h (1 Bft)
28.06.2013 04:25 6,7 C 91 % 1022,3 hPa 0,0 l/m 1,0 km/h (0 Bft) S 180 5,3 C 6,4 C 0,0 km/h (0 Bft)
28.06.2013 04:30 6,5 C 91 % 1022,3 hPa 0,0 l/m 0,2 km/h (0 Bft) O-SO 112 5,1 C 6,3 C 0,0 km/h (0 Bft)
28.06.2013 04:35 6,5 C 91 % 1022,3 hPa 0,0 l/m 0,0 km/h (0 Bft) O-SO 112 5,1 C 6,3 C 0,0 km/h (0 Bft)
28.06.2013 04:40 6,6 C 91 % 1022,3 hPa 0,0 l/m 0,0 km/h (0 Bft) O-SO 112 5,2 C 6,2 C 0,0 km/h (0 Bft)
28.06.2013 04:45 6,5 C 91 % 1022,4 hPa 0,0 l/m 0,0 km/h (0 Bft) O-SO 112 5,1 C 6,1 C 0,0 km/h (0 Bft)
28.06.2013 04:50 6,5 C 91 % 1022,4 hPa 0,0 l/m 0,0 km/h (0 Bft) O-SO 112 5,1 C 6,0 C 0,0 km/h (0 Bft)
28.06.2013 04:55 6,3 C 91 % 1022,4 hPa 0,0 l/m 0,0 km/h (0 Bft) O-SO 112 4,9 C 5,9 C 0,0 km/h (0 Bft)
28.06.2013 05:00 6,1 C 91 % 1022,4 hPa 0,0 l/m 0,0 km/h (0 Bft) S 180 4,7 C 5,8 C 0,0 km/h (0 Bft)
28.06.2013 05:05 6,1 C 91 % 1022,2 hPa 0,0 l/m 0,0 km/h (0 Bft) O-SO 112 4,7 C 5,7 C 0,0 km/h (0 Bft)
28.06.2013 05:10 6,2 C 91 % 1022,2 hPa 0,0 l/m 0,2 km/h (0 Bft) NO 45 4,8 C 5,7 C 2,1 km/h (1 Bft)
28.06.2013 05:15 6,2 C 91 % 1022,2 hPa 0,0 l/m 0,3 km/h (0 Bft) NO 45 4,8 C 5,7 C 0,0 km/h (0 Bft)
28.06.2013 05:20 6,2 C 91 % 1022,2 hPa 0,0 l/m 0,5 km/h (0 Bft) O 90 4,8 C 5,7 C 0,0 km/h (0 Bft)
28.06.2013 05:25 6,1 C 91 % 1022,2 hPa 0,0 l/m 0,3 km/h (0 Bft) O 90 4,7 C 5,7 C 0,0 km/h (0 Bft)
28.06.2013 05:30 5,9 C 93 % 1022,2 hPa 0,0 l/m 0,0 km/h (0 Bft) O 90 4,9 C 5,6 C 0,0 km/h (0 Bft)
28.06.2013 05:35 5,9 C 93 % 1022,2 hPa 0,0 l/m 0,0 km/h (0 Bft) O-NO 67 4,9 C 5,6 C 0,0 km/h (0 Bft)
28.06.2013 05:40 5,9 C 93 % 1022,2 hPa 0,0 l/m 0,0 km/h (0 Bft) O 90 4,9 C 5,5 C 0,0 km/h (0 Bft)
28.06.2013 05:45 5,9 C 93 % 1022,1 hPa 0,0 l/m 0,0 km/h (0 Bft) NO 45 4,9 C 5,5 C 0,0 km/h (0 Bft)
28.06.2013 05:50 5,8 C 93 % 1022,1 hPa 0,0 l/m 0,0 km/h (0 Bft) O-SO 112 4,8 C 5,5 C 0,0 km/h (0 Bft)
28.06.2013 05:55 5,9 C 93 % 1022,1 hPa 0,0 l/m 0,0 km/h (0 Bft) O 90 4,9 C 5,5 C 0,0 km/h (0 Bft)
28.06.2013 06:00 6,0 C 91 % 1022,1 hPa 0,0 l/m 0,0 km/h (0 Bft) O-NO 67 4,6 C 5,7 C 0,0 km/h (0 Bft)
28.06.2013 06:05 6,1 C 92 % 1022,0 hPa 0,0 l/m 0,0 km/h (0 Bft) O-NO 67 4,9 C 5,7 C 0,0 km/h (0 Bft)
28.06.2013 06:10 6,2 C 92 % 1022,0 hPa 0,0 l/m 0,0 km/h (0 Bft) NO 45 5,0 C 5,8 C 0,0 km/h (0 Bft)
28.06.2013 06:15 6,3 C 92 % 1022,0 hPa 0,0 l/m 0,0 km/h (0 Bft) NO 45 5,1 C 5,9 C 0,0 km/h (0 Bft)
28.06.2013 06:20 6,5 C 92 % 1022,0 hPa 0,0 l/m 0,0 km/h (0 Bft) NO 45 5,3 C 6,1 C 0,0 km/h (0 Bft)
28.06.2013 06:25 6,5 C 92 % 1022,2 hPa 0,0 l/m 0,0 km/h (0 Bft) N-NW 337 5,3 C 6,2 C 0,0 km/h (0 Bft)
28.06.2013 06:30 6,6 C 92 % 1022,2 hPa 0,0 l/m 0,0 km/h (0 Bft) N-NW 337 5,4 C 6,3 C 0,0 km/h (0 Bft)
28.06.2013 06:35 6,6 C 92 % 1022,2 hPa 0,0 l/m 0,0 km/h (0 Bft) N 360 5,4 C 6,3 C 0,0 km/h (0 Bft)
28.06.2013 06:40 6,7 C 92 % 1022,2 hPa 0,0 l/m 0,0 km/h (0 Bft) N 360 5,5 C 6,3 C 0,0 km/h (0 Bft)
28.06.2013 06:45 6,8 C 92 % 1022,2 hPa 0,0 l/m 0,0 km/h (0 Bft) S-SW 202 5,6 C 6,4 C 0,0 km/h (0 Bft)
28.06.2013 06:50 6,9 C 92 % 1022,2 hPa 0,0 l/m 0,0 km/h (0 Bft) S 180 5,7 C 6,6 C 0,0 km/h (0 Bft)
28.06.2013 06:55 7,0 C 92 % 1022,2 hPa 0,0 l/m 0,0 km/h (0 Bft) S 180 5,8 C 6,7 C 0,0 km/h (0 Bft)
28.06.2013 07:00 7,2 C 92 % 1022,2 hPa 0,0 l/m 0,0 km/h (0 Bft) S-SO 157 6,0 C 6,8 C 0,0 km/h (0 Bft)
28.06.2013 07:05 7,3 C 92 % 1022,3 hPa 0,0 l/m 0,0 km/h (0 Bft) S-SO 157 6,1 C 6,9 C 0,0 km/h (0 Bft)
28.06.2013 07:10 7,4 C 92 % 1022,3 hPa 0,0 l/m 0,0 km/h (0 Bft) S-SO 157 6,2 C 7,0 C 0,0 km/h (0 Bft)
28.06.2013 07:15 7,4 C 91 % 1022,3 hPa 0,0 l/m 0,3 km/h (0 Bft) SO 135 6,0 C 7,1 C 2,7 km/h (1 Bft)
28.06.2013 07:20 7,4 C 91 % 1022,3 hPa 0,0 l/m 0,6 km/h (0 Bft) W 270 6,0 C 7,1 C 0,0 km/h (0 Bft)
28.06.2013 07:25 7,4 C 91 % 1022,4 hPa 0,0 l/m 0,5 km/h (0 Bft) W 270 6,0 C 7,1 C 0,0 km/h (0 Bft)
28.06.2013 07:30 7,4 C 91 % 1022,4 hPa 0,0 l/m 0,0 km/h (0 Bft) NW 315 6,0 C 7,1 C 0,0 km/h (0 Bft)
28.06.2013 07:35 7,4 C 90 % 1022,4 hPa 0,0 l/m 0,2 km/h (0 Bft) W-SW 247 5,9 C 7,1 C 0,0 km/h (0 Bft)
28.06.2013 07:40 7,4 C 90 % 1022,4 hPa 0,0 l/m 0,2 km/h (0 Bft) S-SW 202 5,9 C 7,1 C 0,0 km/h (0 Bft)
28.06.2013 07:45 7,4 C 90 % 1022,4 hPa 0,0 l/m 0,3 km/h (0 Bft) S-SW 202 5,9 C 7,1 C 0,0 km/h (0 Bft)
28.06.2013 07:50 7,5 C 91 % 1022,4 hPa 0,0 l/m 0,3 km/h (0 Bft) S-SW 202 6,1 C 7,2 C 0,0 km/h (0 Bft)
28.06.2013 07:55 7,5 C 91 % 1022,4 hPa 0,0 l/m 0,0 km/h (0 Bft) SO 135 6,1 C 7,2 C 0,0 km/h (0 Bft)
28.06.2013 08:00 7,6 C 91 % 1022,4 hPa 0,0 l/m 0,5 km/h (0 Bft) S-SO 157 6,2 C 7,2 C 0,0 km/h (0 Bft)
28.06.2013 08:05 7,6 C 92 % 1022,6 hPa 0,0 l/m 0,6 km/h (0 Bft) O-SO 112 6,4 C 7,3 C 0,0 km/h (0 Bft)
28.06.2013 08:10 7,6 C 92 % 1022,6 hPa 0,0 l/m 0,6 km/h (0 Bft) O-SO 112 6,4 C 7,4 C 0,0 km/h (0 Bft)
28.06.2013 08:15 7,7 C 92 % 1022,6 hPa 0,0 l/m 0,5 km/h (0 Bft) S 180 6,5 C 7,4 C 1,9 km/h (1 Bft)
28.06.2013 08:20 7,8 C 92 % 1022,6 hPa 0,0 l/m 0,5 km/h (0 Bft) O-SO 112 6,6 C 7,5 C 1,9 km/h (1 Bft)
28.06.2013 08:25 7,8 C 92 % 1022,5 hPa 0,0 l/m 0,8 km/h (0 Bft) N-NO 22 6,6 C 7,6 C 1,6 km/h (1 Bft)
28.06.2013 08:30 7,8 C 92 % 1022,5 hPa 0,0 l/m 1,8 km/h (1 Bft) O 90 6,6 C 7,7 C 2,7 km/h (1 Bft)
28.06.2013 08:35 7,8 C 92 % 1022,5 hPa 0,0 l/m 2,6 km/h (1 Bft) O 90 6,6 C 7,7 C 3,2 km/h (1 Bft)
28.06.2013 08:40 7,9 C 92 % 1022,5 hPa 0,0 l/m 1,4 km/h (1 Bft) O-NO 67 6,7 C 7,8 C 0,0 km/h (0 Bft)
28.06.2013 08:45 8,1 C 92 % 1022,6 hPa 0,0 l/m 0,5 km/h (0 Bft) NO 45 6,9 C 8,0 C 0,0 km/h (0 Bft)
28.06.2013 08:50 8,5 C 92 % 1022,6 hPa 0,0 l/m 0,0 km/h (0 Bft) O-SO 112 7,3 C 8,4 C 0,0 km/h (0 Bft)
28.06.2013 08:55 8,7 C 92 % 1022,6 hPa 0,0 l/m 0,0 km/h (0 Bft) S 180 7,5 C 8,7 C 0,0 km/h (0 Bft)
28.06.2013 09:00 9,3 C 92 % 1022,6 hPa 0,0 l/m 0,6 km/h (0 Bft) S-SO 157 8,1 C 9,0 C 6,0 km/h (2 Bft)
28.06.2013 09:05 9,5 C 93 % 1022,8 hPa 0,0 l/m 1,0 km/h (0 Bft) SW 225 8,4 C 9,3 C 0,0 km/h (0 Bft)
28.06.2013 09:10 10,0 C 92 % 1022,8 hPa 0,0 l/m 1,3 km/h (1 Bft) S-SW 202 8,8 C 9,9 C 2,4 km/h (1 Bft)
28.06.2013 09:15 10,4 C 92 % 1022,8 hPa 0,0 l/m 1,4 km/h (1 Bft) O-SO 112 9,2 C 10,2 C 3,5 km/h (1 Bft)
28.06.2013 09:20 10,7 C 92 % 1022,8 hPa 0,0 l/m 1,3 km/h (1 Bft) SW 225 9,5 C 10,8 C 0,0 km/h (0 Bft)
28.06.2013 09:25 11,2 C 91 % 1022,8 hPa 0,0 l/m 0,6 km/h (0 Bft) SO 135 9,8 C 11,3 C 0,0 km/h (0 Bft)
28.06.2013 09:30 11,6 C 89 % 1022,8 hPa 0,0 l/m 0,8 km/h (0 Bft) NO 45 9,8 C 12,0 C 0,0 km/h (0 Bft)
28.06.2013 09:35 11,9 C 87 % 1022,8 hPa 0,0 l/m 0,6 km/h (0 Bft) W-NW 292 9,8 C 12,5 C 2,1 km/h (1 Bft)
28.06.2013 09:40 12,8 C 84 % 1022,8 hPa 0,0 l/m 1,0 km/h (0 Bft) S-SW 202 10,2 C 13,2 C 2,3 km/h (1 Bft)
28.06.2013 09:45 13,3 C 82 % 1023,0 hPa 0,0 l/m 1,3 km/h (1 Bft) SW 225 10,3 C 14,1 C 0,0 km/h (0 Bft)
28.06.2013 09:50 14,8 C 78 % 1023,0 hPa 0,0 l/m 0,8 km/h (0 Bft) W 270 11,0 C 16,0 C 3,9 km/h (1 Bft)
28.06.2013 09:55 14,5 C 76 % 1023,0 hPa 0,0 l/m 1,3 km/h (1 Bft) S-SW 202 10,3 C 16,2 C 5,1 km/h (1 Bft)
28.06.2013 10:00 14,1 C 75 % 1023,0 hPa 0,0 l/m 2,6 km/h (1 Bft) W-SW 247 9,7 C 15,9 C 2,3 km/h (1 Bft)
28.06.2013 10:05 14,9 C 73 % 1023,3 hPa 0,0 l/m 2,6 km/h (1 Bft) W-SW 247 10,1 C 16,4 C 6,4 km/h (2 Bft)
28.06.2013 10:10 13,2 C 71 % 1023,3 hPa 0,0 l/m 4,3 km/h (1 Bft) S 180 8,1 C 15,6 C 12,7 km/h (3 Bft)
28.06.2013 10:15 12,9 C 78 % 1023,3 hPa 0,0 l/m 5,8 km/h (2 Bft) O-SO 112 9,2 C 14,6 C 5,3 km/h (1 Bft)
28.06.2013 10:20 14,4 C 71 % 1023,3 hPa 0,0 l/m 5,5 km/h (1 Bft) W 270 9,2 C 14,3 C 6,8 km/h (2 Bft)
28.06.2013 10:25 14,9 C 69 % 1023,2 hPa 0,0 l/m 5,0 km/h (1 Bft) S-SO 157 9,3 C 15,0 C 4,5 km/h (1 Bft)
28.06.2013 10:30 15,4 C 68 % 1023,2 hPa 0,0 l/m 5,1 km/h (1 Bft) S-SW 202 9,5 C 14,8 C 8,0 km/h (2 Bft)
28.06.2013 10:35 16,6 C 66 % 1023,2 hPa 0,0 l/m 5,0 km/h (1 Bft) W-SW 247 10,2 C 15,6 C 2,6 km/h (1 Bft)
28.06.2013 10:40 17,3 C 62 % 1023,2 hPa 0,0 l/m 3,9 km/h (1 Bft) W 270 9,9 C 17,4 C 4,3 km/h (1 Bft)
28.06.2013 10:45 17,1 C 58 % 1023,2 hPa 0,0 l/m 4,0 km/h (1 Bft) W-SW 247 8,8 C 17,8 C 6,3 km/h (2 Bft)
28.06.2013 10:50 17,5 C 54 % 1023,2 hPa 0,0 l/m 4,7 km/h (1 Bft) W-NW 292 8,1 C 18,4 C 6,4 km/h (2 Bft)
28.06.2013 10:55 17,0 C 52 % 1023,2 hPa 0,0 l/m 3,9 km/h (1 Bft) W-NW 292 7,1 C 18,7 C 3,9 km/h (1 Bft)
28.06.2013 11:00 17,8 C 48 % 1023,2 hPa 0,0 l/m 3,9 km/h (1 Bft) W-SW 247 6,6 C 19,1 C 3,5 km/h (1 Bft)
28.06.2013 11:05 17,3 C 48 % 1023,3 hPa 0,0 l/m 4,2 km/h (1 Bft) S-SW 202 6,2 C 19,4 C 5,5 km/h (1 Bft)
28.06.2013 11:10 18,6 C 45 % 1023,3 hPa 0,0 l/m 4,0 km/h (1 Bft) S-SW 202 6,4 C 19,5 C 1,8 km/h (1 Bft)
28.06.2013 11:15 17,3 C 47 % 1023,3 hPa 0,0 l/m 3,5 km/h (1 Bft) S-SO 157 5,9 C 19,7 C 2,6 km/h (1 Bft)
28.06.2013 11:20 15,5 C 52 % 1023,3 hPa 0,0 l/m 3,2 km/h (1 Bft) S 180 5,7 C 18,8 C 5,3 km/h (1 Bft)
28.06.2013 11:25 13,9 C 56 % 1023,3 hPa 0,0 l/m 5,0 km/h (1 Bft) S 180 5,3 C 16,8 C 13,7 km/h (3 Bft)
28.06.2013 11:30 10,6 C 66 % 1023,3 hPa 0,0 l/m 8,5 km/h (2 Bft) O 90 4,5 C 10,2 C 21,2 km/h (4 Bft)
28.06.2013 11:35 9,9 C 76 % 1023,3 hPa 0,0 l/m 7,4 km/h (2 Bft) S-SW 202 5,9 C 9,0 C 4,7 km/h (1 Bft)
28.06.2013 11:40 8,9 C 79 % 1023,3 hPa 0,0 l/m 4,2 km/h (1 Bft) O-SO 112 5,5 C 9,3 C 4,5 km/h (1 Bft)
28.06.2013 11:45 8,9 C 80 % 1022,8 hPa 0,7 l/m 4,0 km/h (1 Bft) O 90 5,6 C 9,2 C 4,3 km/h (1 Bft)
28.06.2013 11:50 9,9 C 84 % 1022,8 hPa 0,0 l/m 2,9 km/h (1 Bft) S 180 7,3 C 9,6 C 1,6 km/h (1 Bft)
28.06.2013 11:55 10,6 C 85 % 1022,8 hPa 0,0 l/m 3,1 km/h (1 Bft) S 180 8,2 C 10,2 C 4,3 km/h (1 Bft)
28.06.2013 12:00 11,7 C 85 % 1022,8 hPa 0,0 l/m 4,0 km/h (1 Bft) S 180 9,3 C 11,3 C 3,7 km/h (1 Bft)
28.06.2013 12:05 12,3 C 83 % 1023,2 hPa 0,0 l/m 4,7 km/h (1 Bft) S-SW 202 9,5 C 12,2 C 6,9 km/h (2 Bft)
28.06.2013 12:10 13,3 C 82 % 1023,2 hPa 0,0 l/m 4,5 km/h (1 Bft) S 180 10,3 C 13,4 C 4,8 km/h (1 Bft)
28.06.2013 12:15 13,9 C 80 % 1023,2 hPa 0,0 l/m 4,2 km/h (1 Bft) O-SO 112 10,5 C 14,0 C 2,9 km/h (1 Bft)
28.06.2013 12:20 14,6 C 75 % 1023,2 hPa 0,0 l/m 3,4 km/h (1 Bft) S 180 10,2 C 15,1 C 3,4 km/h (1 Bft)
28.06.2013 12:25 14,2 C 74 % 1023,3 hPa 0,0 l/m 3,1 km/h (1 Bft) S 180 9,6 C 15,7 C 4,5 km/h (1 Bft)
28.06.2013 12:30 14,4 C 77 % 1023,3 hPa 0,0 l/m 2,9 km/h (1 Bft) O-NO 67 10,4 C 16,0 C 2,3 km/h (1 Bft)
28.06.2013 12:35 14,8 C 69 % 1023,3 hPa 0,0 l/m 1,8 km/h (1 Bft) O 90 9,2 C 16,6 C 1,6 km/h (1 Bft)
28.06.2013 12:40 15,3 C 73 % 1023,3 hPa 0,0 l/m 2,1 km/h (1 Bft) SO 135 10,5 C 17,4 C 3,7 km/h (1 Bft)
28.06.2013 12:45 15,7 C 73 % 1023,1 hPa 0,0 l/m 2,1 km/h (1 Bft) SW 225 10,9 C 18,1 C 2,7 km/h (1 Bft)
28.06.2013 12:50 15,7 C 67 % 1023,1 hPa 0,0 l/m 4,3 km/h (1 Bft) S-SO 157 9,6 C 18,2 C 14,2 km/h (3 Bft)
28.06.2013 12:55 16,3 C 70 % 1023,1 hPa 0,0 l/m 5,8 km/h (2 Bft) S-SW 202 10,8 C 17,9 C 9,2 km/h (2 Bft)
28.06.2013 12:56 16,0 C 58 % 1023,1 hPa 0,0 l/m 7,4 km/h (2 Bft) W-SW 247 7,7 C 17,9 C 10,6 km/h (2 Bft)
28.06.2013 13:01 15,5 C 70 % 1023,3 hPa 0,0 l/m 6,8 km/h (2 Bft) W-SW 247 10,1 C 17,5 C 7,4 km/h (2 Bft)
28.06.2013 13:06 15,2 C 70 % 1023,3 hPa 0,0 l/m 5,5 km/h (1 Bft) S-SO 157 9,8 C 17,2 C 4,2 km/h (1 Bft)
28.06.2013 13:11 15,6 C 74 % 1023,3 hPa 0,0 l/m 4,7 km/h (1 Bft) S-SO 157 11,0 C 17,4 C 9,7 km/h (2 Bft)
28.06.2013 13:16 16,0 C 70 % 1023,3 hPa 0,0 l/m 3,1 km/h (1 Bft) NO 45 10,5 C 17,4 C 3,4 km/h (1 Bft)
28.06.2013 13:21 16,4 C 67 % 1023,4 hPa 0,0 l/m 2,4 km/h (1 Bft) NW 315 10,3 C 18,2 C 2,4 km/h (1 Bft)
28.06.2013 13:26 16,3 C 72 % 1023,4 hPa 0,0 l/m 2,9 km/h (1 Bft) O-SO 112 11,2 C 18,3 C 3,5 km/h (1 Bft)
28.06.2013 13:31 16,0 C 69 % 1023,4 hPa 0,0 l/m 3,4 km/h (1 Bft) O-SO 112 10,3 C 18,1 C 6,0 km/h (2 Bft)
28.06.2013 13:36 15,3 C 70 % 1023,4 hPa 0,0 l/m 4,5 km/h (1 Bft) N 360 9,9 C 17,0 C 6,8 km/h (2 Bft)
28.06.2013 13:41 15,2 C 68 % 1023,4 hPa 0,0 l/m 5,0 km/h (1 Bft) S 180 9,3 C 16,5 C 6,3 km/h (2 Bft)
28.06.2013 13:46 15,1 C 65 % 1023,4 hPa 0,0 l/m 4,2 km/h (1 Bft) S 180 8,6 C 16,3 C 3,9 km/h (1 Bft)
28.06.2013 13:51 15,1 C 67 % 1023,4 hPa 0,0 l/m 3,9 km/h (1 Bft) SW 225 9,0 C 16,1 C 6,3 km/h (2 Bft)
28.06.2013 13:56 14,9 C 68 % 1023,4 hPa 0,0 l/m 3,1 km/h (1 Bft) S-SO 157 9,0 C 15,9 C 3,5 km/h (1 Bft)
28.06.2013 14:00 14,9 C 68 % 1023,4 hPa 0,0 l/m 3,1 km/h (1 Bft) S-SO 157 9,0 C 15,9 C 3,5 km/h (1 Bft)
28.06.2013 14:05 15,0 C 67 % 1023,2 hPa 0,0 l/m 2,9 km/h (1 Bft) S-SW 202 8,9 C 15,8 C 4,7 km/h (1 Bft)
28.06.2013 14:10 14,6 C 58 % 1023,2 hPa 0,0 l/m 3,1 km/h (1 Bft) O 90 6,4 C 15,8 C 5,5 km/h (1 Bft)
28.06.2013 14:15 14,8 C 59 % 1023,2 hPa 0,0 l/m 2,7 km/h (1 Bft) S 180 6,9 C 15,9 C 2,9 km/h (1 Bft)
28.06.2013 14:20 15,4 C 58 % 1023,2 hPa 0,0 l/m 1,3 km/h (1 Bft) S 180 7,2 C 16,5 C 0,0 km/h (0 Bft)
28.06.2013 14:25 15,4 C 55 % 1023,0 hPa 0,0 l/m 0,3 km/h (0 Bft) N 360 6,4 C 17,3 C 0,0 km/h (0 Bft)
28.06.2013 14:30 15,5 C 57 % 1023,0 hPa 0,0 l/m 0,8 km/h (0 Bft) N 360 7,0 C 17,8 C 1,9 km/h (1 Bft)
28.06.2013 14:35 15,4 C 58 % 1023,0 hPa 0,0 l/m 1,0 km/h (0 Bft) N-NO 22 7,2 C 17,5 C 0,0 km/h (0 Bft)
28.06.2013 14:40 15,1 C 56 % 1023,0 hPa 0,0 l/m 0,8 km/h (0 Bft) W-SW 247 6,4 C 17,3 C 0,0 km/h (0 Bft)
28.06.2013 14:45 14,2 C 57 % 1022,8 hPa 0,0 l/m 1,9 km/h (1 Bft) W-NW 292 5,8 C 16,8 C 6,0 km/h (2 Bft)
28.06.2013 14:50 13,1 C 62 % 1022,8 hPa 0,0 l/m 4,3 km/h (1 Bft) W-NW 292 6,0 C 15,3 C 2,1 km/h (1 Bft)
28.06.2013 14:55 13,0 C 63 % 1022,8 hPa 0,0 l/m 4,2 km/h (1 Bft) S-SW 202 6,1 C 14,6 C 3,5 km/h (1 Bft)
28.06.2013 15:00 12,8 C 65 % 1022,8 hPa 0,0 l/m 2,9 km/h (1 Bft) S-SW 202 6,4 C 13,7 C 9,2 km/h (2 Bft)
28.06.2013 15:05 12,4 C 62 % 1022,6 hPa 0,0 l/m 4,8 km/h (1 Bft) W-SW 247 5,3 C 13,1 C 8,9 km/h (2 Bft)
28.06.2013 15:10 12,2 C 65 % 1022,6 hPa 0,0 l/m 5,0 km/h (1 Bft) S 180 5,8 C 12,0 C 4,3 km/h (1 Bft)
28.06.2013 15:15 12,7 C 66 % 1022,6 hPa 0,0 l/m 2,9 km/h (1 Bft) W-SW 247 6,5 C 11,7 C 2,9 km/h (1 Bft)
28.06.2013 15:20 14,4 C 74 % 1022,6 hPa 0,0 l/m 1,3 km/h (1 Bft) O-SO 112 9,8 C 12,3 C 0,0 km/h (0 Bft)
28.06.2013 15:25 15,8 C 71 % 1022,9 hPa 0,0 l/m 0,6 km/h (0 Bft) S-SW 202 10,6 C 15,3 C 2,7 km/h (1 Bft)
28.06.2013 15:30 17,0 C 67 % 1022,9 hPa 0,0 l/m 1,1 km/h (1 Bft) S 180 10,8 C 18,2 C 4,2 km/h (1 Bft)
28.06.2013 15:35 16,8 C 63 % 1022,9 hPa 0,0 l/m 2,6 km/h (1 Bft) W-NW 292 9,7 C 18,9 C 5,0 km/h (1 Bft)
28.06.2013 15:40 16,6 C 60 % 1022,9 hPa 0,0 l/m 2,9 km/h (1 Bft) W 270 8,8 C 19,8 C 5,6 km/h (1 Bft)
28.06.2013 15:45 16,4 C 63 % 1023,1 hPa 0,0 l/m 2,9 km/h (1 Bft) W 270 9,3 C 19,6 C 2,7 km/h (1 Bft)
28.06.2013 15:50 16,3 C 59 % 1023,1 hPa 0,0 l/m 2,6 km/h (1 Bft) N-NW 337 8,3 C 19,7 C 0,0 km/h (0 Bft)
28.06.2013 15:55 15,9 C 63 % 1023,1 hPa 0,0 l/m 1,8 km/h (1 Bft) N-NW 337 8,9 C 20,8 C 5,0 km/h (1 Bft)
28.06.2013 16:00 16,4 C 62 % 1023,1 hPa 0,0 l/m 2,9 km/h (1 Bft) W 270 9,1 C 19,5 C 5,5 km/h (1 Bft)
28.06.2013 16:05 15,8 C 58 % 1023,1 hPa 0,0 l/m 3,9 km/h (1 Bft) W-NW 292 7,6 C 19,6 C 2,9 km/h (1 Bft)
28.06.2013 16:10 16,6 C 58 % 1023,1 hPa 0,0 l/m 3,9 km/h (1 Bft) N-NO 22 8,3 C 18,7 C 2,4 km/h (1 Bft)
28.06.2013 16:15 15,7 C 59 % 1023,1 hPa 0,0 l/m 4,0 km/h (1 Bft) W-SW 247 7,7 C 19,1 C 6,4 km/h (2 Bft)
28.06.2013 16:20 15,0 C 63 % 1023,1 hPa 0,0 l/m 4,2 km/h (1 Bft) N-NO 22 8,0 C 17,5 C 4,0 km/h (1 Bft)
28.06.2013 16:25 15,5 C 60 % 1023,1 hPa 0,0 l/m 4,0 km/h (1 Bft) N 360 7,8 C 17,3 C 5,3 km/h (1 Bft)
28.06.2013 16:30 15,8 C 59 % 1023,1 hPa 0,0 l/m 3,2 km/h (1 Bft) NO 45 7,8 C 17,7 C 4,3 km/h (1 Bft)
28.06.2013 16:35 16,2 C 58 % 1023,1 hPa 0,0 l/m 3,2 km/h (1 Bft) S-SO 157 7,9 C 18,2 C 2,6 km/h (1 Bft)
28.06.2013 16:40 16,4 C 55 % 1023,1 hPa 0,0 l/m 2,1 km/h (1 Bft) W-SW 247 7,3 C 20,0 C 7,1 km/h (2 Bft)
28.06.2013 16:45 16,3 C 50 % 1022,8 hPa 0,0 l/m 3,1 km/h (1 Bft) S 180 5,9 C 19,7 C 6,4 km/h (2 Bft)
28.06.2013 16:50 15,8 C 54 % 1022,8 hPa 0,0 l/m 6,0 km/h (2 Bft) W-SW 247 6,5 C 18,2 C 6,0 km/h (2 Bft)
28.06.2013 16:55 15,4 C 57 % 1022,8 hPa 0,0 l/m 6,1 km/h (2 Bft) SO 135 6,9 C 17,4 C 6,4 km/h (2 Bft)
28.06.2013 17:00 15,3 C 61 % 1022,8 hPa 0,0 l/m 4,5 km/h (1 Bft) NO 45 7,8 C 17,3 C 4,0 km/h (1 Bft)
28.06.2013 17:05 14,6 C 62 % 1022,9 hPa 0,0 l/m 3,7 km/h (1 Bft) SW 225 7,4 C 16,8 C 7,2 km/h (2 Bft)
28.06.2013 17:10 13,7 C 61 % 1022,9 hPa 0,0 l/m 5,8 km/h (2 Bft) S-SW 202 6,3 C 15,4 C 6,1 km/h (2 Bft)
28.06.2013 17:15 13,7 C 60 % 1022,9 hPa 0,0 l/m 8,4 km/h (2 Bft) W 270 6,1 C 13,4 C 5,3 km/h (1 Bft)
28.06.2013 17:20 13,8 C 61 % 1022,9 hPa 0,0 l/m 7,1 km/h (2 Bft) W-SW 247 6,4 C 13,8 C 6,8 km/h (2 Bft)
28.06.2013 17:25 13,9 C 62 % 1022,6 hPa 0,0 l/m 5,8 km/h (2 Bft) W-NW 292 6,7 C 14,3 C 10,6 km/h (2 Bft)
28.06.2013 17:30 13,8 C 62 % 1022,6 hPa 0,0 l/m 4,7 km/h (1 Bft) W-NW 292 6,6 C 14,4 C 3,5 km/h (1 Bft)
28.06.2013 17:35 13,9 C 63 % 1022,6 hPa 0,0 l/m 3,1 km/h (1 Bft) W 270 7,0 C 14,4 C 3,1 km/h (1 Bft)
28.06.2013 17:40 13,8 C 61 % 1022,6 hPa 0,0 l/m 1,9 km/h (1 Bft) N-NW 337 6,4 C 14,5 C 0,0 km/h (0 Bft)
28.06.2013 17:45 13,9 C 63 % 1022,8 hPa 0,0 l/m 1,9 km/h (1 Bft) NO 45 7,0 C 14,6 C 0,0 km/h (0 Bft)
28.06.2013 17:50 13,9 C 63 % 1022,8 hPa 0,0 l/m 1,9 km/h (1 Bft) N 360 7,0 C 15,4 C 2,4 km/h (1 Bft)
28.06.2013 17:55 14,0 C 63 % 1022,8 hPa 0,0 l/m 1,4 km/h (1 Bft) NO 45 7,1 C 15,5 C 0,0 km/h (0 Bft)
28.06.2013 18:00 14,5 C 62 % 1022,8 hPa 0,0 l/m 1,4 km/h (1 Bft) N-NO 22 7,3 C 16,8 C 3,4 km/h (1 Bft)
28.06.2013 18:05 14,4 C 63 % 1022,9 hPa 0,0 l/m 2,6 km/h (1 Bft) O 90 7,4 C 16,6 C 4,3 km/h (1 Bft)
28.06.2013 18:10 13,6 C 65 % 1022,9 hPa 0,0 l/m 3,9 km/h (1 Bft) N-NW 337 7,1 C 15,5 C 4,5 km/h (1 Bft)
28.06.2013 18:15 13,3 C 66 % 1022,9 hPa 0,0 l/m 2,7 km/h (1 Bft) SO 135 7,1 C 15,0 C 0,0 km/h (0 Bft)
28.06.2013 18:20 13,2 C 67 % 1022,9 hPa 0,0 l/m 1,3 km/h (1 Bft) W-NW 292 7,2 C 14,4 C 2,6 km/h (1 Bft)
28.06.2013 18:25 13,0 C 66 % 1022,2 hPa 0,0 l/m 1,3 km/h (1 Bft) N 360 6,8 C 14,1 C 2,7 km/h (1 Bft)
28.06.2013 18:30 12,7 C 70 % 1022,2 hPa 0,0 l/m 1,8 km/h (1 Bft) NO 45 7,4 C 13,8 C 3,2 km/h (1 Bft)
28.06.2013 18:35 12,5 C 71 % 1022,2 hPa 0,0 l/m 2,6 km/h (1 Bft) N-NW 337 7,4 C 13,4 C 3,1 km/h (1 Bft)
28.06.2013 18:40 12,4 C 73 % 1022,2 hPa 0,0 l/m 3,5 km/h (1 Bft) N-NW 337 7,7 C 13,1 C 4,7 km/h (1 Bft)
28.06.2013 18:45 12,2 C 72 % 1022,2 hPa 0,0 l/m 3,5 km/h (1 Bft) N 360 7,3 C 12,7 C 5,1 km/h (1 Bft)
28.06.2013 18:50 11,8 C 74 % 1022,2 hPa 0,0 l/m 3,2 km/h (1 Bft) W-NW 292 7,3 C 12,0 C 1,9 km/h (1 Bft)
28.06.2013 18:55 11,7 C 75 % 1022,2 hPa 0,0 l/m 3,1 km/h (1 Bft) S-SW 202 7,4 C 11,6 C 4,2 km/h (1 Bft)
28.06.2013 19:00 11,5 C 73 % 1022,2 hPa 0,0 l/m 4,0 km/h (1 Bft) S-SW 202 6,8 C 11,3 C 5,1 km/h (1 Bft)
28.06.2013 19:05 11,4 C 70 % 1022,6 hPa 0,0 l/m 4,8 km/h (1 Bft) S-SW 202 6,1 C 11,2 C 6,1 km/h (2 Bft)
28.06.2013 19:10 10,9 C 70 % 1022,6 hPa 0,0 l/m 4,8 km/h (1 Bft) SO 135 5,6 C 10,8 C 6,8 km/h (2 Bft)
28.06.2013 19:15 10,5 C 72 % 1022,6 hPa 0,0 l/m 4,5 km/h (1 Bft) W 270 5,7 C 10,3 C 3,4 km/h (1 Bft)
28.06.2013 19:20 9,8 C 75 % 1022,6 hPa 0,0 l/m 4,0 km/h (1 Bft) W-NW 292 5,6 C 9,5 C 4,3 km/h (1 Bft)
28.06.2013 19:25 9,3 C 80 % 1022,6 hPa 0,0 l/m 3,5 km/h (1 Bft) NO 45 6,0 C 9,3 C 3,4 km/h (1 Bft)
28.06.2013 19:30 9,4 C 85 % 1022,6 hPa 0,0 l/m 3,4 km/h (1 Bft) S 180 7,0 C 9,3 C 2,9 km/h (1 Bft)
28.06.2013 19:35 10,2 C 87 % 1022,6 hPa 0,0 l/m 2,7 km/h (1 Bft) W-NW 292 8,1 C 10,1 C 0,0 km/h (0 Bft)
28.06.2013 19:40 11,1 C 88 % 1022,6 hPa 0,0 l/m 0,6 km/h (0 Bft) W 270 9,2 C 12,5 C 0,0 km/h (0 Bft)
28.06.2013 19:45 11,3 C 89 % 1023,1 hPa 0,0 l/m 0,3 km/h (0 Bft) O 90 9,6 C 13,7 C 0,0 km/h (0 Bft)
28.06.2013 19:50 11,4 C 89 % 1023,1 hPa 0,0 l/m 0,2 km/h (0 Bft) W 270 9,7 C 13,6 C 0,0 km/h (0 Bft)
28.06.2013 19:55 11,4 C 90 % 1023,1 hPa 0,0 l/m 0,2 km/h (0 Bft) W 270 9,8 C 13,3 C 0,0 km/h (0 Bft)
28.06.2013 20:00 11,2 C 90 % 1023,1 hPa 0,0 l/m 0,3 km/h (0 Bft) W-SW 247 9,6 C 13,0 C 1,6 km/h (1 Bft)
28.06.2013 20:05 10,9 C 90 % 1023,3 hPa 0,0 l/m 0,5 km/h (0 Bft) W-NW 292 9,3 C 12,8 C 0,0 km/h (0 Bft)
28.06.2013 20:10 10,6 C 88 % 1023,3 hPa 0,0 l/m 1,3 km/h (1 Bft) N 360 8,7 C 12,8 C 2,4 km/h (1 Bft)
28.06.2013 20:15 10,5 C 89 % 1023,3 hPa 0,0 l/m 1,3 km/h (1 Bft) W-SW 247 8,8 C 12,3 C 3,2 km/h (1 Bft)
28.06.2013 20:20 10,3 C 88 % 1023,3 hPa 0,0 l/m 0,8 km/h (0 Bft) W-NW 292 8,4 C 11,8 C 0,0 km/h (0 Bft)
28.06.2013 20:25 10,3 C 88 % 1022,9 hPa 0,0 l/m 1,0 km/h (0 Bft) N-NO 22 8,4 C 11,5 C 1,8 km/h (1 Bft)
28.06.2013 20:30 9,8 C 88 % 1022,9 hPa 0,0 l/m 1,1 km/h (1 Bft) W 270 7,9 C 10,8 C 0,0 km/h (0 Bft)
28.06.2013 20:35 9,5 C 89 % 1022,9 hPa 0,0 l/m 1,1 km/h (1 Bft) W-NW 292 7,8 C 10,6 C 3,9 km/h (1 Bft)
28.06.2013 20:40 9,1 C 89 % 1022,9 hPa 0,0 l/m 0,6 km/h (0 Bft) W 270 7,4 C 10,7 C 1,8 km/h (1 Bft)
28.06.2013 20:45 8,8 C 90 % 1023,1 hPa 0,0 l/m 0,5 km/h (0 Bft) W-NW 292 7,3 C 10,1 C 0,0 km/h (0 Bft)
28.06.2013 20:50 8,5 C 90 % 1023,1 hPa 0,0 l/m 0,2 km/h (0 Bft) N 360 7,0 C 9,5 C 0,0 km/h (0 Bft)
28.06.2013 20:55 8,3 C 90 % 1023,1 hPa 0,0 l/m 0,2 km/h (0 Bft) W-NW 292 6,8 C 9,1 C 0,0 km/h (0 Bft)
28.06.2013 21:00 8,1 C 91 % 1023,1 hPa 0,0 l/m 0,2 km/h (0 Bft) N-NW 337 6,7 C 8,6 C 0,0 km/h (0 Bft)
28.06.2013 21:05 7,9 C 91 % 1023,0 hPa 0,0 l/m 0,0 km/h (0 Bft) N-NW 337 6,5 C 8,3 C 0,0 km/h (0 Bft)
28.06.2013 21:10 7,7 C 91 % 1023,0 hPa 0,0 l/m 0,0 km/h (0 Bft) NW 315 6,3 C 7,8 C 0,0 km/h (0 Bft)
28.06.2013 21:15 7,5 C 92 % 1023,0 hPa 0,0 l/m 0,0 km/h (0 Bft) N-NO 22 6,3 C 7,6 C 0,0 km/h (0 Bft)
28.06.2013 21:20 7,4 C 92 % 1023,0 hPa 0,0 l/m 0,3 km/h (0 Bft) O-NO 67 6,2 C 7,5 C 0,0 km/h (0 Bft)
28.06.2013 21:25 7,3 C 92 % 1023,2 hPa 0,0 l/m 0,3 km/h (0 Bft) W-NW 292 6,1 C 7,3 C 0,0 km/h (0 Bft)
28.06.2013 21:30 7,2 C 92 % 1023,2 hPa 0,0 l/m 0,2 km/h (0 Bft) NO 45 6,0 C 7,2 C 0,0 km/h (0 Bft)
28.06.2013 21:35 7,1 C 93 % 1023,2 hPa 0,0 l/m 0,0 km/h (0 Bft) NO 45 6,0 C 7,1 C 0,0 km/h (0 Bft)
28.06.2013 21:40 7,1 C 93 % 1023,2 hPa 0,0 l/m 0,2 km/h (0 Bft) NO 45 6,0 C 6,9 C 0,0 km/h (0 Bft)
28.06.2013 21:45 6,9 C 93 % 1023,4 hPa 0,0 l/m 0,2 km/h (0 Bft) NO 45 5,8 C 6,7 C 0,0 km/h (0 Bft)
28.06.2013 21:50 6,8 C 93 % 1023,4 hPa 0,0 l/m 0,2 km/h (0 Bft) NW 315 5,7 C 6,5 C 2,4 km/h (1 Bft)
28.06.2013 21:55 6,6 C 93 % 1023,4 hPa 0,0 l/m 0,2 km/h (0 Bft) O-SO 112 5,6 C 6,5 C 0,0 km/h (0 Bft)
28.06.2013 22:00 6,6 C 93 % 1023,4 hPa 0,0 l/m 0,2 km/h (0 Bft) O 90 5,6 C 6,3 C 0,0 km/h (0 Bft)
28.06.2013 22:05 6,6 C 93 % 1023,6 hPa 0,0 l/m 0,0 km/h (0 Bft) O 90 5,6 C 6,3 C 0,0 km/h (0 Bft)
28.06.2013 22:10 6,7 C 94 % 1023,6 hPa 0,0 l/m 0,0 km/h (0 Bft) O 90 5,8 C 6,2 C 0,0 km/h (0 Bft)
28.06.2013 22:15 6,5 C 94 % 1023,6 hPa 0,0 l/m 0,0 km/h (0 Bft) O-SO 112 5,6 C 6,1 C 0,0 km/h (0 Bft)
28.06.2013 22:20 6,3 C 94 % 1023,6 hPa 0,0 l/m 0,0 km/h (0 Bft) O 90 5,4 C 6,0 C 0,0 km/h (0 Bft)
28.06.2013 22:25 6,2 C 94 % 1023,6 hPa 0,0 l/m 0,0 km/h (0 Bft) W-NW 292 5,3 C 6,0 C 0,0 km/h (0 Bft)
28.06.2013 22:30 6,3 C 94 % 1023,6 hPa 0,0 l/m 0,0 km/h (0 Bft) O 90 5,4 C 5,9 C 0,0 km/h (0 Bft)
28.06.2013 22:35 6,1 C 94 % 1023,6 hPa 0,0 l/m 0,0 km/h (0 Bft) O 90 5,2 C 5,8 C 0,0 km/h (0 Bft)
28.06.2013 22:40 6,0 C 94 % 1023,6 hPa 0,0 l/m 0,0 km/h (0 Bft) W-SW 247 5,1 C 5,8 C 0,0 km/h (0 Bft)
28.06.2013 22:45 6,1 C 94 % 1023,5 hPa 0,0 l/m 0,0 km/h (0 Bft) O 90 5,2 C 5,9 C 0,0 km/h (0 Bft)
28.06.2013 22:50 6,0 C 94 % 1023,5 hPa 0,0 l/m 0,3 km/h (0 Bft) S 180 5,1 C 6,0 C 2,4 km/h (1 Bft)
28.06.2013 22:55 6,2 C 94 % 1023,5 hPa 0,0 l/m 0,5 km/h (0 Bft) O 90 5,3 C 6,0 C 0,0 km/h (0 Bft)
28.06.2013 23:00 6,0 C 94 % 1023,5 hPa 0,0 l/m 0,3 km/h (0 Bft) W 270 5,1 C 5,9 C 2,7 km/h (1 Bft)
28.06.2013 23:05 5,9 C 95 % 1023,6 hPa 0,0 l/m 0,2 km/h (0 Bft) N 360 5,2 C 5,9 C 0,0 km/h (0 Bft)
28.06.2013 23:10 6,0 C 94 % 1023,6 hPa 0,0 l/m 0,6 km/h (0 Bft) NO 45 5,1 C 6,1 C 4,3 km/h (1 Bft)
28.06.2013 23:15 6,0 C 94 % 1023,6 hPa 0,0 l/m 0,8 km/h (0 Bft) O-SO 112 5,1 C 6,2 C 0,0 km/h (0 Bft)
28.06.2013 23:20 6,0 C 94 % 1023,6 hPa 0,0 l/m 0,6 km/h (0 Bft) W 270 5,1 C 6,1 C 2,3 km/h (1 Bft)
28.06.2013 23:25 6,0 C 94 % 1023,5 hPa 0,0 l/m 0,3 km/h (0 Bft) W 270 5,1 C 6,1 C 0,0 km/h (0 Bft)
28.06.2013 23:30 6,0 C 95 % 1023,5 hPa 0,0 l/m 0,3 km/h (0 Bft) W-SW 247 5,3 C 6,0 C 0,0 km/h (0 Bft)
28.06.2013 23:35 5,9 C 96 % 1023,5 hPa 0,0 l/m 0,2 km/h (0 Bft) W-SW 247 5,3 C 5,9 C 0,0 km/h (0 Bft)
28.06.2013 23:40 5,9 C 96 % 1023,5 hPa 0,0 l/m 0,2 km/h (0 Bft) SO 135 5,3 C 5,9 C 0,0 km/h (0 Bft)
28.06.2013 23:45 5,9 C 96 % 1023,7 hPa 0,0 l/m 0,0 km/h (0 Bft) O-NO 67 5,3 C 5,7 C 0,0 km/h (0 Bft)
28.06.2013 23:50 5,8 C 96 % 1023,7 hPa 0,0 l/m 0,0 km/h (0 Bft) W-NW 292 5,2 C 5,7 C 0,0 km/h (0 Bft)
28.06.2013 23:55 5,8 C 96 % 1023,7 hPa 0,0 l/m 0,0 km/h (0 Bft) W-SW 247 5,2 C 5,7 C 0,0 km/h (0 Bft)
_ Min-Zeit 23:55 11:10 06:20 - 23:55 - - 11:30 05:55 23:55
Minimum _ 5,8 C 45 % 1022,0 hPa - 0,0 km/h (0 Bft) - - 4,5 C 5,5 C 0,0 km/h (0 Bft)
_ Max-Zeit 11:10 23:55 00:40 11:45 11:30 - - 13:26 15:55 11:30
Maximum _ 18,6 C 96 % 1023,8 hPa 0,7 l/m 8,5 km/h
O (2 Bft)
- - 11,2 C 20,8 C 21,2 km/h
O (4 Bft)
Durchschnitt _ 10,3 C 81 % 1022,9 hPa #0,7 l/m 1,7 km/h (1 Bft) S - 6,9 C 10,8 C 2,2 km/h (1 Bft)